Weather reports worldwide

Advertisment
Vitoria, Spain (8080): temperature & dewpoint: 08.11.2018 13:00:00 - 14.11.2018 13:00:00 (CET)Vitoria, Spain (8080): wind speed: 08.11.2018 13:00:00 - 14.11.2018 13:00:00 (CET)Vitoria, Spain (8080): wind direction: 08.11.2018 13:00:00 - 14.11.2018 13:00:00 (CET)Vitoria, Spain (8080): reduced air pressure: 08.11.2018 13:00:00 - 14.11.2018 13:00:00 (CET)Vitoria, Spain (8080): visibility: 08.11.2018 13:00:00 - 14.11.2018 13:00:00 (CET)
Date & Time tt [°C] td [°C] ff [km/h] ff [kn] dd ppp [hPa] vv [km]
14.11.2018 13:00:00 18,1 11,9 9 5 E 1020,8 20
14.11.2018 12:00:00 15,6 12,2 4 2 SW 1022,5 -
14.11.2018 11:00:00 14,1 11,7 11 6 WSW 1023,6 -
14.11.2018 10:00:00 10,4 10,4 0 0 N 1024,6 4,0
14.11.2018 09:00:00 6,0 6,0 0 0 N 1025,9 -
14.11.2018 08:00:00 4,1 4,1 0 0 N 1026,0 3,5
14.11.2018 07:00:00 4,5 4,5 0 0 N 1025,8 6
14.11.2018 06:00:00 5,1 5,1 4 2 NNE 1025,9 -
14.11.2018 05:00:00 5,3 5,3 0 0 N 1025,9 -
14.11.2018 04:00:00 4,6 4,6 0 0 N 1026,5 7
14.11.2018 03:00:00 4,3 4,3 0 0 N 1027,0 -
14.11.2018 02:00:00 4,7 4,7 5 3 NE 1027,0 -
14.11.2018 01:00:00 4,4 4,4 0 0 N 1027,7 7
14.11.2018 00:00:00 5,4 5,4 0 0 N 1027,7 -
13.11.2018 23:00:00 6,0 6,0 0 0 N 1027,7 -
13.11.2018 22:00:00 6,6 6,6 0 0 N 1027,5 6
13.11.2018 21:00:00 7,2 7,2 0 0 N 1027,4 -
13.11.2018 20:00:00 8,3 8,3 0 0 N 1027,0 -
13.11.2018 19:00:00 10,2 9,6 4 2 NE 1026,6 15
13.11.2018 18:00:00 12,1 10,8 9 5 NE 1025,7 -
13.11.2018 17:00:00 15,6 11,0 0 0 N 1025,0 -
13.11.2018 16:00:00 15,8 11,0 4 2 N 1024,7 30
13.11.2018 15:00:00 15,1 10,5 4 2 ENE 1025,0 -
13.11.2018 14:00:00 14,4 10,2 4 2 ENE 1025,6 25
13.11.2018 13:00:00 12,9 9,8 8 4 ESE 1026,5 20
13.11.2018 12:00:00 12,7 9,9 8 4 ENE 1027,3 -
13.11.2018 11:00:00 11,8 9,8 13 7 NNE 1027,8 -
13.11.2018 10:00:00 11,1 9,3 9 5 NNE 1027,7 20
13.11.2018 09:00:00 10,3 9,0 5 3 N 1027,3 -
13.11.2018 08:00:00 10,3 9,1 9 5 N 1026,6 15
13.11.2018 07:00:00 10,0 9,2 5 3 N 1026,2 15
13.11.2018 06:00:00 10,0 9,3 9 5 NW 1025,7 -
13.11.2018 05:00:00 9,9 9,2 0 0 N 1025,2 -
13.11.2018 04:00:00 10,1 9,5 5 3 N 1025,1 10
13.11.2018 03:00:00 10,1 9,6 4 2 NW 1024,9 -
13.11.2018 02:00:00 10,2 9,7 5 3 NNW 1024,7 -
13.11.2018 01:00:00 10,3 9,8 8 4 NW 1024,2 10
13.11.2018 00:00:00 10,7 10,2 11 6 NNW 1023,4 -
12.11.2018 23:00:00 10,5 10,0 9 5 NNE 1022,8 -
12.11.2018 22:00:00 11,1 10,3 8 4 N 1022,1 10
12.11.2018 21:00:00 11,3 10,7 0 0 N 1020,8 -
12.11.2018 20:00:00 11,3 11,0 4 2 ESE 1019,9 -
12.11.2018 19:00:00 11,6 11,3 5 3 NNE 1018,9 9
12.11.2018 18:00:00 12,2 11,7 11 6 NNE 1017,7 -
12.11.2018 17:00:00 13,4 12,3 0 0 N 1016,5 -
12.11.2018 16:00:00 13,5 12,2 5 3 NW 1016,1 10
12.11.2018 15:00:00 13,2 11,9 2 1 N 1016,2 -
12.11.2018 14:00:00 13,0 11,5 2 1 N 1016,4 15
12.11.2018 13:00:00 12,6 11,1 0 0 N 1016,8 15
12.11.2018 12:00:00 12,2 11,1 5 3 N 1016,9 -
12.11.2018 11:00:00 11,8 10,9 0 0 N 1016,4 -
12.11.2018 10:00:00 11,1 10,8 2 1 W 1016,4 12
12.11.2018 09:00:00 10,8 10,5 8 4 S 1015,7 -
12.11.2018 08:00:00 10,9 10,6 8 4 S 1014,6 7
12.11.2018 07:00:00 10,9 10,7 4 2 W 1013,9 12
12.11.2018 06:00:00 11,1 10,6 0 0 N 1012,8 -
12.11.2018 05:00:00 11,9 10,6 11 6 W 1011,8 -
12.11.2018 04:00:00 12,8 10,0 11 6 SE 1010,8 20
12.11.2018 03:00:00 13,5 10,7 13 7 SSW 1009,7 -
12.11.2018 02:00:00 14,8 10,6 8 4 W 1008,7 -
12.11.2018 01:00:00 15,1 9,7 9 5 SE 1008,3 20
12.11.2018 00:00:00 15,6 9,6 18 10 SE 1007,9 -
11.11.2018 23:00:00 14,1 10,2 4 2 ESE 1008,3 -
11.11.2018 22:00:00 13,2 10,2 8 4 N 1008,8 20
11.11.2018 21:00:00 13,5 10,2 2 1 NE 1008,9 -
11.11.2018 20:00:00 12,9 11,4 5 3 NNE 1009,0 -
11.11.2018 19:00:00 13,5 11,7 0 0 N 1009,0 15
11.11.2018 18:00:00 13,5 12,6 0 0 N 1009,0 -
11.11.2018 17:00:00 14,7 12,5 8 4 NNW 1009,0 -
11.11.2018 16:00:00 15,7 12,5 2 1 E 1009,2 15
11.11.2018 15:00:00 17,2 10,9 11 6 SSE 1008,8 -
11.11.2018 14:00:00 17,1 10,1 5 3 ESE 1009,2 25
11.11.2018 13:00:00 16,4 9,5 15 8 S 1010,2 25
11.11.2018 12:00:00 15,1 9,0 8 4 SE 1011,1 -
11.11.2018 11:00:00 15,1 8,4 13 7 SE 1011,4 -
11.11.2018 10:00:00 15,3 8,2 13 7 SSW 1011,6 20
11.11.2018 09:00:00 14,2 7,9 15 8 SSW 1011,1 -
11.11.2018 08:00:00 13,8 7,8 11 6 SW 1010,9 15
11.11.2018 07:00:00 12,5 7,8 15 8 SSW 1010,0 10
11.11.2018 06:00:00 12,3 7,2 4 2 SSE 1010,2 -
11.11.2018 05:00:00 12,0 6,9 4 2 SW 1010,3 -
11.11.2018 04:00:00 11,4 7,3 11 6 W 1010,6 10
11.11.2018 03:00:00 12,4 7,7 15 8 SSW 1011,2 -
11.11.2018 02:00:00 13,4 7,6 34 18 SW 1011,2 -
11.11.2018 01:00:00 13,3 8,4 31 17 SW 1011,5 10
11.11.2018 00:00:00 13,7 8,9 41 22 SSW 1010,3 -
10.11.2018 23:00:00 14,1 8,7 26 14 SSW 1010,5 -
10.11.2018 22:00:00 14,2 8,4 24 13 SSW 1010,2 10
10.11.2018 21:00:00 14,2 8,6 28 15 SW 1009,5 -
10.11.2018 20:00:00 15,1 8,8 28 15 SSW 1008,9 -
10.11.2018 19:00:00 15,4 9,5 29 16 SSW 1007,7 12
10.11.2018 18:00:00 14,7 10,5 26 14 SSW 1007,4 -
10.11.2018 17:00:00 15,3 10,1 26 14 SSW 1007,1 -
10.11.2018 16:00:00 15,6 10,7 21 11 SSW 1006,9 25
10.11.2018 15:00:00 15,8 10,4 28 15 SSW 1006,6 -
10.11.2018 14:00:00 16,3 10,2 28 15 SSW 1007,0 30
10.11.2018 13:00:00 16,9 11,2 16 9 SSW 1007,1 25
10.11.2018 12:00:00 15,9 10,7 16 9 SSW 1008,0 -
10.11.2018 11:00:00 14,9 11,1 21 11 SW 1008,3 -
10.11.2018 10:00:00 13,2 10,5 9 5 S 1008,6 20
10.11.2018 09:00:00 13,0 10,2 13 7 SW 1008,4 -
10.11.2018 08:00:00 12,5 9,0 9 5 SSE 1008,0 15
10.11.2018 07:00:00 13,1 8,4 18 10 S 1008,1 15
10.11.2018 06:00:00 13,0 8,5 15 8 SSW 1008,8 -
10.11.2018 05:00:00 12,2 8,7 21 11 SW 1009,5 -
10.11.2018 04:00:00 12,1 8,9 13 7 S 1009,8 15
10.11.2018 03:00:00 12,0 9,2 9 5 SE 1010,7 -
10.11.2018 02:00:00 11,8 8,8 0 0 N 1011,4 -
10.11.2018 01:00:00 11,6 9,0 13 7 SW 1012,1 15
10.11.2018 00:00:00 10,8 8,7 9 5 WSW 1012,9 -
09.11.2018 23:00:00 11,1 7,8 28 15 SW 1013,4 -
09.11.2018 22:00:00 10,2 7,7 18 10 SW 1014,0 10
09.11.2018 21:00:00 10,1 7,3 13 7 SSW 1014,6 -
09.11.2018 20:00:00 10,4 6,5 34 18 SW 1014,8 -
09.11.2018 19:00:00 10,2 6,3 31 17 SSW 1014,9 25
09.11.2018 18:00:00 10,7 5,4 28 15 SW 1014,7 -
09.11.2018 17:00:00 10,9 4,1 29 16 SW 1014,7 -
09.11.2018 16:00:00 11,7 4,1 34 18 SW 1014,4 35
09.11.2018 15:00:00 11,9 4,1 28 15 SW 1014,9 -
09.11.2018 14:00:00 11,9 4,3 34 18 SW 1015,8 35
09.11.2018 13:00:00 11,3 5,0 22 12 SSW 1016,3 30
09.11.2018 12:00:00 11,0 6,0 26 14 SW 1017,5 -
09.11.2018 11:00:00 9,8 6,1 18 10 SSW 1018,2 -
09.11.2018 10:00:00 8,0 5,6 18 10 SW 1018,5 25
09.11.2018 09:00:00 6,9 5,3 11 6 SW 1018,6 -
09.11.2018 08:00:00 6,5 5,3 5 3 SW 1018,2 20
09.11.2018 07:00:00 5,8 4,6 9 5 SW 1017,7 15
09.11.2018 06:00:00 6,6 5,4 9 5 WSW 1017,3 -
09.11.2018 05:00:00 6,1 4,9 9 5 SSW 1016,9 -
09.11.2018 04:00:00 7,5 5,8 8 4 W 1016,1 15
09.11.2018 03:00:00 7,6 5,7 8 4 WSW 1014,9 -
09.11.2018 02:00:00 7,4 5,9 16 9 SW 1014,3 -
09.11.2018 01:00:00 7,8 6,4 15 8 SW 1013,9 15
09.11.2018 00:00:00 7,8 6,8 9 5 WSW 1013,9 -
08.11.2018 23:00:00 8,4 7,2 9 5 SW 1013,9 -
08.11.2018 22:00:00 8,7 7,4 9 5 SSW 1013,8 15
08.11.2018 21:00:00 9,6 7,2 22 12 SW 1013,3 -
08.11.2018 20:00:00 12,0 6,7 5 3 SSE 1010,8 -
08.11.2018 19:00:00 12,4 6,8 11 6 SE 1010,6 25
08.11.2018 18:00:00 12,5 6,7 16 9 SE 1010,2 -
08.11.2018 17:00:00 13,0 7,0 16 9 SE 1010,4 -
08.11.2018 16:00:00 14,9 7,4 22 12 SSE 1010,6 25
08.11.2018 15:00:00 14,9 7,0 24 13 SSE 1010,8 -
08.11.2018 14:00:00 15,0 6,0 26 14 SSE 1011,3 20
08.11.2018 13:00:00 13,7 6,6 22 12 ESE 1012,9 20

tt = temperature
td = dewpoint
ff = wind speed
dd = wind direction
ppp = reduced air pressure
vv = visibility

Next stations